O'Neill, NE

8:41 PM CDT on May 22, 2018 (GMT -0500)
The O'Neill Municipal-Baker

Weather History for KONL - December, 2012

Change the Weather History Date:

Saturday, December 8, 2012

  Actual Average Record
Temperature  
Mean Temperature 32 °F -  
Max Temperature 35 °F 35 °F 67 °F (1970)
Min Temperature 28 °F 13 °F -12 °F (1978)
Degree Days  
Heating Degree Days 34    
Moisture  
Dew Point 27 °F    
Average Humidity 82    
Maximum Humidity 93    
Minimum Humidity 70    
Precipitation  
Precipitation 0.00 in - - ()
Sea Level Pressure  
Sea Level Pressure 29.84 in    
Wind  
Wind Speed 7 mph (South)    
Max Wind Speed 18 mph    
Max Gust Speed 24 mph    
Visibility 10 miles    
Events Snow    
Averages and records for this station are not official NWS values.
T = Trace of Precipitation, MM = Missing Value Source: NWS Daily Summary

Daily Weather History Graph

Daily Weather History Graph

Search for Another Location

Airport or City:

Astronomy

Dec. 08, 2012 Rise Set
Actual Time 7:52 AM CST 5:01 PM CST
Civil Twilight 7:20 AM CST 5:33 PM CST
Nautical Twilight 6:44 AM CST 6:08 PM CST
Astronomical Twilight 6:10 AM CST 6:42 PM CST
Moon 2:13 AM CST (12/8) 1:37 PM CST (12/8)
Length of Visible Light 10h 13m
Length of Day
9h 09m
Waning Crescent, 28% of the Moon is Illuminated
Dec 8
Waning Crescent
Dec 13
New
Dec 19
First Quarter
Dec 28
Full
Jan 4
Last Quarter

Hourly Weather History & Observations

Time (CST) Temp. Windchill Dew Point Humidity Pressure Visibility Wind Dir Wind Speed Gust Speed Precip Events Conditions
12:15 AM 30.6 °F - 26.2 °F 84% 29.99 in 10.0 mi Calm Calm - N/A   Overcast
12:35 AM 30.6 °F 27.1 °F 25.9 °F 83% 29.99 in 10.0 mi North 3.5 mph - N/A   Overcast
12:55 AM 30.6 °F - 25.5 °F 82% 29.98 in 10.0 mi Calm Calm - N/A   Overcast
1:15 AM 30.2 °F - 25.7 °F 83% 29.97 in 10.0 mi Calm Calm - N/A   Overcast
1:35 AM 30.2 °F - 25.7 °F 83% 29.97 in 10.0 mi Calm Calm - N/A   Overcast
1:55 AM 30.2 °F - 25.7 °F 83% 29.96 in 10.0 mi Calm Calm - N/A   Overcast
2:15 AM 30.2 °F - 25.7 °F 83% 29.96 in 10.0 mi Calm Calm - N/A   Overcast
2:35 AM 30.2 °F 25.4 °F 25.7 °F 83% 29.96 in 10.0 mi South 4.6 mph - N/A   Overcast
2:55 AM 30.0 °F - 25.5 °F 83% 29.95 in 10.0 mi Calm Calm - N/A   Overcast
3:15 AM 29.8 °F 23.9 °F 25.7 °F 85% 29.96 in 10.0 mi SW 5.8 mph - N/A   Overcast
3:35 AM 29.8 °F 22.2 °F 25.7 °F 85% 29.95 in 10.0 mi SSW 8.1 mph - N/A   Overcast
3:55 AM 29.7 °F 22.8 °F 25.7 °F 85% 29.95 in 10.0 mi SSW 6.9 mph - N/A   Overcast
4:15 AM 29.3 °F 24.3 °F 25.7 °F 86% 29.93 in 10.0 mi South 4.6 mph - N/A   Overcast
4:35 AM 29.3 °F 25.6 °F 25.7 °F 86% 29.93 in 10.0 mi South 3.5 mph - N/A   Overcast
4:55 AM 28.4 °F 22.2 °F 26.6 °F 93% 29.93 in 10.0 mi SW 5.8 mph - N/A   Overcast
5:15 AM 29.1 °F 21.3 °F 25.7 °F 87% 29.94 in 10.0 mi South 8.1 mph - N/A   Overcast
5:35 AM 28.8 °F 22.6 °F 25.5 °F 88% 29.93 in 10.0 mi South 5.8 mph - N/A   Overcast
5:55 AM 29.1 °F 23.0 °F 25.7 °F 87% 29.92 in 10.0 mi South 5.8 mph - N/A   Overcast
6:15 AM 29.1 °F 23.0 °F 25.7 °F 87% 29.92 in 10.0 mi SSE 5.8 mph - N/A   Overcast
6:35 AM 28.9 °F 23.9 °F 25.7 °F 88% 29.90 in 10.0 mi SE 4.6 mph - N/A   Overcast
6:55 AM 28.9 °F 23.9 °F 25.7 °F 88% 29.90 in 10.0 mi SE 4.6 mph - N/A   Mostly Cloudy
7:15 AM 28.8 °F 22.6 °F 25.7 °F 88% 29.90 in 10.0 mi SSE 5.8 mph - N/A   Overcast
7:35 AM 28.9 °F 21.1 °F 25.7 °F 88% 29.89 in 7.0 mi SSE 8.1 mph - N/A   Overcast
7:55 AM 28.8 °F 20.2 °F 25.5 °F 88% 29.90 in 10.0 mi SSE 9.2 mph - N/A   Overcast
8:15 AM 28.9 °F 21.1 °F 25.7 °F 88% 29.90 in 10.0 mi SSE 8.1 mph - N/A   Overcast
8:35 AM 28.9 °F 20.4 °F 25.7 °F 88% 29.90 in 10.0 mi SSE 9.2 mph - N/A   Overcast
8:55 AM 28.9 °F 19.8 °F 25.7 °F 88% 29.89 in 10.0 mi SSE 10.4 mph - N/A   Overcast
9:15 AM 29.1 °F 19.4 °F 25.7 °F 87% 29.88 in 10.0 mi SE 11.5 mph - N/A   Overcast
9:35 AM 29.1 °F 18.9 °F 25.5 °F 86% 29.89 in 10.0 mi SSE 12.7 mph - N/A   Overcast
9:55 AM 29.5 °F 18.0 °F 25.7 °F 86% 29.88 in 10.0 mi SSE 16.1 mph - N/A   Overcast
10:15 AM 30.0 °F 19.5 °F 26.1 °F 85% 29.89 in 10.0 mi South 13.8 mph 18.4 mph N/A   Overcast
10:35 AM 30.2 °F 20.2 °F 26.1 °F 85% 29.89 in 10.0 mi South 12.7 mph - N/A   Overcast
10:55 AM 30.7 °F 20.9 °F 26.2 °F 83% 29.88 in 10.0 mi South 12.7 mph - N/A   Overcast
11:15 AM 31.1 °F 21.9 °F 26.8 °F 84% 29.88 in 5.0 mi SSE 11.5 mph - N/A Snow Light Snow
11:35 AM 31.5 °F 20.9 °F 26.8 °F 83% 29.86 in 5.0 mi SSE 15.0 mph - N/A Snow Light Snow
11:55 AM 32.0 °F 22.5 °F 27.0 °F 82% 29.85 in 10.0 mi South 12.7 mph - N/A   Overcast
12:15 PM 32.4 °F 23.5 °F 27.1 °F 81% 29.84 in 10.0 mi South 11.5 mph - N/A   Overcast
12:35 PM 33.6 °F 24.6 °F 27.0 °F 77% 29.82 in 10.0 mi SSE 12.7 mph - N/A   Overcast
12:55 PM 34.2 °F 24.4 °F 27.1 °F 75% 29.80 in 10.0 mi SE 15.0 mph - N/A   Overcast
1:15 PM 34.9 °F 25.3 °F 27.0 °F 73% 29.78 in 10.0 mi SSE 15.0 mph - N/A   Mostly Cloudy
1:35 PM 34.7 °F 24.0 °F 26.4 °F 72% 29.78 in 10.0 mi SSE 18.4 mph 23.0 mph N/A   Overcast
1:55 PM 34.7 °F 25.5 °F 26.6 °F 72% 29.77 in 10.0 mi SSE 13.8 mph 19.6 mph N/A   Overcast
2:15 PM 35.6 °F 25.9 °F 26.6 °F 70% 29.76 in 10.0 mi SSE 16.1 mph 21.9 mph N/A   Overcast
2:35 PM 34.7 °F 24.0 °F 26.4 °F 72% 29.74 in 10.0 mi SE 18.4 mph 24.2 mph N/A   Overcast
2:55 PM 34.5 °F 24.5 °F 26.6 °F 73% 29.73 in 10.0 mi SSE 16.1 mph 23.0 mph N/A   Mostly Cloudy
3:15 PM 34.2 °F 23.3 °F 26.6 °F 74% 29.71 in 10.0 mi SSE 18.4 mph - N/A   Overcast
3:35 PM 34.5 °F 24.8 °F 27.0 °F 74% 29.72 in 10.0 mi SE 15.0 mph 19.6 mph N/A   Overcast
3:55 PM 34.9 °F 25.7 °F 26.6 °F 72% 29.73 in 10.0 mi South 13.8 mph 23.0 mph N/A   Overcast
4:15 PM 35.1 °F 25.9 °F 26.8 °F 72% 29.74 in 10.0 mi South 13.8 mph - N/A   Overcast
4:35 PM 34.9 °F 24.6 °F 26.6 °F 72% 29.70 in 10.0 mi SSE 17.3 mph 23.0 mph N/A   Scattered Clouds
4:55 PM 34.9 °F 26.2 °F 27.3 °F 74% 29.71 in 10.0 mi SSE 12.7 mph 18.4 mph N/A   Scattered Clouds
5:15 PM 35.1 °F 26.4 °F 27.5 °F 74% 29.73 in 10.0 mi South 12.7 mph - N/A   Mostly Cloudy
5:35 PM 35.2 °F 26.6 °F 27.3 °F 73% 29.73 in 10.0 mi SSE 12.7 mph - N/A   Overcast
5:55 PM 35.1 °F 25.5 °F 27.3 °F 73% 29.73 in 10.0 mi South 15.0 mph 21.9 mph N/A   Overcast
6:15 PM 34.7 °F 25.1 °F 27.5 °F 75% 29.72 in 10.0 mi South 15.0 mph 24.2 mph N/A   Scattered Clouds
6:35 PM 34.3 °F 24.2 °F 27.9 °F 77% 29.73 in 10.0 mi South 16.1 mph 20.7 mph N/A   Clear
6:55 PM 33.8 °F 23.9 °F 28.4 °F 81% 29.73 in 10.0 mi SSE 15.0 mph - N/A   Scattered Clouds
7:15 PM 33.8 °F 24.3 °F 28.4 °F 81% 29.73 in 10.0 mi South 13.8 mph - N/A   Clear
7:35 PM 33.3 °F 24.6 °F 28.4 °F 82% 29.74 in 10.0 mi South 11.5 mph - N/A   Scattered Clouds
7:55 PM 33.1 °F 24.9 °F 28.4 °F 83% 29.73 in 10.0 mi SSE 10.4 mph - N/A   Clear
8:15 PM 33.1 °F 25.5 °F 28.4 °F 83% 29.75 in 10.0 mi South 9.2 mph - N/A   Clear
8:35 PM 33.3 °F 26.4 °F 28.6 °F 83% 29.75 in 10.0 mi South 8.1 mph - N/A   Clear
8:55 PM 33.8 °F 26.4 °F 28.9 °F 82% 29.75 in 10.0 mi South 9.2 mph - N/A   Clear
9:15 PM 33.8 °F 25.8 °F 29.3 °F 84% 29.76 in 10.0 mi South 10.4 mph - N/A   Clear
9:35 PM 34.0 °F 26.6 °F 29.7 °F 84% 29.75 in 10.0 mi South 9.2 mph - N/A   Clear
9:55 PM 33.8 °F 27.0 °F 29.7 °F 85% 29.74 in 10.0 mi South 8.1 mph - N/A   Clear
10:15 PM 33.1 °F 24.9 °F 29.5 °F 87% 29.75 in 7.0 mi South 10.4 mph - N/A   Clear
10:35 PM 32.9 °F 24.7 °F 29.7 °F 88% 29.76 in 7.0 mi SSW 10.4 mph - N/A   Clear
10:55 PM 32.9 °F 24.1 °F 29.7 °F 88% 29.76 in 7.0 mi SSW 11.5 mph - N/A   Clear
11:15 PM 33.1 °F 24.9 °F 29.8 °F 88% 29.78 in 7.0 mi SW 10.4 mph - N/A   Clear
11:35 PM 32.9 °F 26.7 °F 29.5 °F 87% 29.78 in 7.0 mi SW 6.9 mph - N/A   Mostly Cloudy
11:55 PM 32.2 °F 25.0 °F 28.9 °F 88% 29.79 in 7.0 mi West 8.1 mph - N/A   Mostly Cloudy